Volver al catálogo

STARLINK-37682

ActivoComunicacionesVLEO
NORAD 69209·PAYLOAD·🇺🇸 United States

Lanzado May 25, 2026 desde Cape Canaveral Space Force Station

Loading…

Próximos Pases (próximas 24 horas)

TLE

ActualizadoSource: CelesTrak SupGP

Época: Sep 14, 2026, 22:44 UTC

1 69209C 26114AD  26257.94770833 -.00054240  00000+0 -16026-2 0  2573
2 69209  53.1564 139.3760 0001320  89.8283  57.9425 15.34416097    18

Sigue STARLINK-37682 en tiempo real con AllMySat

Download on the App Store